Location: Carri�res
(48.9069°N, 2.1792°E)
Time: 17:08:57
(UTC+00:00)

X-37B - Pass Details

Date: 08 December 2021
Orbit: 334 x 337 km, 45.0° (Epoch: 11 January)

Event Time Altitude Azimuth Distance (km) Brightness Sun altitude
Rises 17:33:05 0° 219° (SW) 2,096 5.3 -15.3°
Reaches altitude 10° 17:35:33 10° 196° (SSW) 1,263 3.6 -15.7°
Maximum altitude 17:37:23 16° 156° (SSE) 986 2.5 -16.0°
Enters shadow 17:37:40 16° 148° (SSE) 993 2.5 -16.1°
